TIANMU-1 18

Last updated on Mon Jun 22 2026 00:02:46 GMT+0000 (Coordinated Universal Time)

1 58703U 24004D 26172.50568463 .00004179 00000+0 16032-3 0 9993 2 58703 97.4666 358.6735 0003609 0.4275 359.6966 15.27041126136436
UTC large
Height (km)
Speed (km/s)
/
Latitude / Longitude
Inclination (degrees)
Orbital Period (minutes)
Azimuth
Elevation
Range (km)
Doppler Factor

Next 0 passes for location: London (51.5072 / 0.1276)

No passes found over London.
TIANMU-1 18